Weather History for KMHT - December, 2012

Change the Weather History Date:

Tuesday, December 18, 2012

  Actual Average Record
Temperature  
Mean Temperature 39 °F -  
Max Temperature 43 °F 35 °F 53 °F (1954)
Min Temperature 35 °F 16 °F -2 °F (1951)
Degree Days  
Heating Degree Days 26    
Moisture  
Dew Point 38 °F    
Average Humidity 95    
Maximum Humidity 100    
Minimum Humidity 92    
Precipitation  
Precipitation 0.53 in - - ()
Sea Level Pressure  
Sea Level Pressure 29.53 in    
Wind  
Wind Speed 8 mph (North)    
Max Wind Speed 14 mph    
Max Gust Speed -    
Visibility 3 miles    
Events Fog , Rain    
Averages and records for this station are not official NWS values.
T = Trace of Precipitation, MM = Missing Value Source: NWS Daily Summary

Daily Weather History Graph

Daily Weather History Graph

Search for Another Location

Airport or City:

Trip Planner

Search our weather history database for the weather conditions in past years. The results will help you decide how hot, cold, wet, or windy it might be!

Date:

Astronomy

Dec. 18, 2012 Rise Set
Actual Time 7:12 AM EST 4:13 PM EST
Civil Twilight 6:39 AM EST 4:45 PM EST
Nautical Twilight 6:03 AM EST 5:21 PM EST
Astronomical Twilight 5:29 AM EST 5:55 PM EST
Moon 10:42 AM EST (12/18) 10:44 PM EST (12/18)
Length of Visible Light 10h 05m
Length of Day
9h 01m
Waxing Crescent, 34% of the Moon is Illuminated
Dec 18
Waxing Crescent
Dec 20
First Quarter
Dec 28
Full
Jan 4
Last Quarter
Jan 11
New

Hourly Weather History & Observations

Time (EST) Temp. Windchill Dew Point Humidity Pressure Visibility Wind Dir Wind Speed Gust Speed Precip Events Conditions
12:53 AM 35.1 °F 28.6 °F 33.1 °F 92% 29.85 in 1.5 mi NNE 8.1 mph - 0.00 in   Light Drizzle
1:53 AM 35.1 °F 27.4 °F 34.0 °F 96% 29.82 in 1.0 mi NNE 10.4 mph - 0.01 in Rain Light Rain
2:53 AM 36.0 °F 30.3 °F 34.0 °F 93% 29.78 in 2.0 mi ENE 6.9 mph - 0.05 in Rain Light Rain
3:53 AM 37.0 °F 31.0 °F 35.1 °F 93% 29.74 in 2.0 mi NNE 8.1 mph - 0.09 in Rain Rain
4:53 AM 37.0 °F 31.0 °F 35.1 °F 93% 29.70 in 3.0 mi NNE 8.1 mph - 0.11 in Rain Light Rain
5:53 AM 37.9 °F 31.5 °F 36.0 °F 93% 29.67 in 3.0 mi NE 9.2 mph - 0.03 in Rain Light Rain
6:20 AM 37.4 °F 29.8 °F 35.6 °F 93% 29.60 in 4.0 mi NE 11.5 mph - 0.02 in Rain Light Rain
6:25 AM 37.4 °F 30.3 °F 35.6 °F 93% 29.60 in 4.0 mi NE 10.4 mph - 0.02 in Rain Light Rain
6:53 AM 37.9 °F 32.7 °F 37.0 °F 97% 29.65 in 4.0 mi NNE 6.9 mph - 0.06 in Rain Light Rain
7:53 AM 37.9 °F 33.5 °F 37.0 °F 97% 29.64 in 2.5 mi NNW 5.8 mph - 0.08 in Rain Light Rain
8:19 AM 37.4 °F 28.9 °F 37.4 °F 100% 29.53 in 2.5 mi NNE 13.8 mph - 0.04 in Rain Light Rain
8:22 AM 39.2 °F 32.5 °F 37.4 °F 93% 29.54 in 2.5 mi NNE 10.4 mph - 0.05 in Rain Light Rain
8:53 AM 39.9 °F 36.7 °F 39.0 °F 97% 29.58 in 2.5 mi Variable 4.6 mph - 0.05 in Rain Light Rain
9:23 AM 39.2 °F 35.0 °F 39.2 °F 100% 29.53 in 2.0 mi North 5.8 mph - 0.00 in   Light Drizzle
9:53 AM 39.9 °F 34.5 °F 39.0 °F 97% 29.56 in 2.0 mi North 8.1 mph - 0.01 in   Light Drizzle
9:55 AM 39.2 °F 33.6 °F 39.2 °F 100% 29.51 in 1.5 mi North 8.1 mph - 0.00 in   Light Drizzle
10:09 AM 41.0 °F 36.4 °F 39.2 °F 93% 29.50 in 2.0 mi North 6.9 mph - 0.00 in   Light Drizzle
10:11 AM 41.0 °F 35.8 °F 39.2 °F 93% 29.50 in 1.5 mi North 8.1 mph - 0.00 in   Light Drizzle
10:53 AM 43.0 °F 37.7 °F 41.0 °F 93% 29.52 in 1.0 mi North 9.2 mph - 0.00 in   Light Drizzle
11:10 AM 42.8 °F 38.6 °F 42.8 °F 100% 29.47 in 0.8 mi North 6.9 mph - 0.00 in   Light Drizzle
11:26 AM 42.8 °F 38.6 °F 41.0 °F 93% 29.46 in 0.2 mi NNW 6.9 mph - 0.00 in   Light Drizzle
11:53 AM 42.1 °F 38.4 °F 41.0 °F 96% 29.50 in 0.2 mi NW 5.8 mph - 0.00 in   Light Drizzle
12:53 PM 42.1 °F 37.7 °F 41.0 °F 96% 29.47 in 0.2 mi NNW 6.9 mph - 0.01 in   Light Drizzle
1:53 PM 43.0 °F 40.3 °F 42.1 °F 97% 29.45 in 0.2 mi NW 4.6 mph - 0.01 in   Drizzle
2:42 PM 42.8 °F 39.3 °F 41.0 °F 93% 29.41 in 0.8 mi NW 5.8 mph - 0.01 in Fog , Rain Light Rain
2:53 PM 42.1 °F 37.7 °F 39.9 °F 92% 29.46 in 1.0 mi NW 6.9 mph - 0.01 in Rain Light Rain
3:53 PM 39.9 °F 34.5 °F 39.0 °F 97% 29.45 in 1.0 mi NW 8.1 mph - 0.01 in   Light Drizzle
4:13 PM 39.2 °F 34.2 °F 39.2 °F 100% 29.40 in 6.0 mi NW 6.9 mph - N/A   Overcast
4:53 PM 39.9 °F 35.1 °F 37.9 °F 93% 29.45 in 5.0 mi NW 6.9 mph - 0.00 in   Light Drizzle
5:36 PM 39.2 °F 37.0 °F 37.4 °F 93% 29.41 in 2.5 mi NW 3.5 mph - 0.00 in   Light Drizzle
5:53 PM 39.9 °F 35.1 °F 37.9 °F 93% 29.46 in 2.0 mi WNW 6.9 mph - 0.00 in   Light Drizzle
6:29 PM 39.2 °F 34.2 °F 37.4 °F 93% 29.41 in 3.0 mi NW 6.9 mph - 0.00 in   Light Drizzle
6:53 PM 39.9 °F 35.1 °F 37.9 °F 93% 29.46 in 7.0 mi NW 6.9 mph - 0.00 in   Overcast
7:53 PM 39.9 °F 35.8 °F 37.9 °F 93% 29.47 in 8.0 mi NNW 5.8 mph - 0.00 in   Overcast
8:53 PM 39.9 °F 35.1 °F 37.9 °F 93% 29.47 in 8.0 mi NW 6.9 mph - N/A   Overcast
9:48 PM 39.2 °F 35.9 °F 37.4 °F 93% 29.42 in 6.0 mi NW 4.6 mph - N/A   Overcast
9:53 PM 39.9 °F 35.8 °F 37.9 °F 93% 29.47 in 5.0 mi NW 5.8 mph - N/A   Overcast
10:53 PM 39.9 °F 35.1 °F 37.9 °F 93% 29.48 in 10.0 mi NNW 6.9 mph - N/A   Overcast
11:53 PM 39.9 °F 35.1 °F 37.9 °F 93% 29.47 in 10.0 mi NW 6.9 mph - N/A   Overcast